DW7888 Weather Reports


time (UTC)temp
C
wind
direction
speed
KPH
gust
KPH
rain 1hr
cm
rain 24hr
cm
rain mn
cm
humidity
%
barometer
mb
20260901201012 34 329 0.0 14.5 0.00 0.00 0.00 51 1016.1
20260901200503 34 5 1.6 14.5 0.00 0.00 0.00 50 1016.1
20260901200014 34 63 1.6 8.0 0.00 0.00 0.00 51 1016.1
20260901195514 34 5 0.0 8.0 0.00 0.00 0.00 51 1016.2
20260901195006 35 355 3.2 8.0 0.00 0.00 0.00 50 1016.2
20260901194514 35 336 1.6 8.0 0.00 0.00 0.00 50 1016.3
20260901194018 34 355 1.6 8.0 0.00 0.00 0.00 51 1016.4
20260901193505 35 339 1.6 8.0 0.00 0.00 0.00 50 1016.5
20260901193033 34 51 1.6 8.0 0.00 0.00 0.00 52 1016.6
20260901192514 34 53 3.2 6.4 0.00 0.00 0.00 50 1016.6
20260901192006 35 41 1.6 4.8 0.00 0.00 0.00 51 1016.7
20260901191520 35 355 0.0 6.4 0.00 0.00 0.00 51 1016.7
20260901191017 34 314 0.0 6.4 0.00 0.00 0.00 52 1016.7
20260901190505 34 337 1.6 6.4 0.00 0.00 0.00 50 1016.7
20260901190019 34 344 0.0 6.4 0.00 0.00 0.00 51 1016.8
20260901185503 34 5 1.6 6.4 0.00 0.00 0.00 56 1016.9
20260901185007 33 22 1.6 6.4 0.00 0.00 0.00 53 1017.0
20260901184517 33 27 1.6 6.4 0.00 0.00 0.00 54 1017.0
20260901184004 34 9 1.6 4.8 0.00 0.00 0.00 52 1017.0
20260901183507 34 318 1.6 9.7 0.00 0.00 0.00 54 1017.0
20260901183019 33 352 0.0 9.7 0.00 0.00 0.00 53 1017.1
20260901182503 35 339 1.6 9.7 0.00 0.00 0.00 51 1017.2
20260901182006 34 336 3.2 6.4 0.00 0.00 0.00 50 1017.1
20260901181522 34 23 0.0 4.8 0.00 0.00 0.00 51 1017.0
20260901181003 34 11 0.0 6.4 0.00 0.00 0.00 57 1017.0
20260901180512 34 34 3.2 9.7 0.00 0.00 0.00 54 1016.9
20260901180023 34 355 3.2 9.7 0.00 0.00 0.00 53 1016.9
20260901175507 33 321 1.6 6.4 0.00 0.00 0.00 53 1016.7
20260901175010 33 40 1.6 4.8 0.00 0.00 0.00 53 1016.7
20260901174526 34 127 0.0 3.2 0.00 0.00 0.00 58 1016.8
20260901174003 33 355 0.0 3.2 0.00 0.00 0.00 57 1016.9
20260901173512 33 296 1.6 8.0 0.00 0.00 0.00 54 1016.8
20260901173023 33 34 1.6 8.0 0.00 0.00 0.00 52 1017.0
20260901172505 34 355 1.6 8.0 0.00 0.00 0.00 53 1017.0
20260901172008 33 80 0.0 6.4 0.00 0.00 0.00 59 1016.9
20260901171525 33 184 0.0 8.0 0.00 0.00 0.00 60 1016.9
20260901171003 33 36 1.6 8.0 0.00 0.00 0.00 57 1016.8
20260901170513 33 337 1.6 8.0 0.00 0.00 0.00 59 1017.0
20260901170026 33 24 1.6 8.0 0.00 0.00 0.00 58 1016.9
20260901165506 33 9 1.6 6.4 0.00 0.00 0.00 57 1017.0
20260901165012 33 348 0.0 6.4 0.00 0.00 0.00 60 1017.1
20260901164528 32 355 0.0 6.4 0.00 0.00 0.00 58 1017.2
20260901164006 32 342 1.6 8.0 0.00 0.00 0.00 58 1017.3
20260901163510 33 31 3.2 8.0 0.00 0.00 0.00 60 1017.3
20260901163028 33 346 1.6 12.9 0.00 0.00 0.00 59 1017.4
20260901162508 32 319 1.6 12.9 0.00 0.00 0.00 61 1017.5
20260901162011 32 330 3.2 9.7 0.00 0.00 0.00 59 1017.7
20260901161537 32 338 3.2 9.7 0.00 0.00 0.00 62 1017.7
20260901161009 32 350 3.2 9.7 0.00 0.00 0.00 61 1017.7
20260901160511 32 318 1.6 9.7 0.00 0.00 0.00 63 1017.8
20260901160041 32 24 1.6 8.0 0.00 0.00 0.00 62 1017.9
20260901155506 32 355 3.2 8.0 0.00 0.00 0.00 61 1017.9
20260901155025 32 333 1.6 6.4 0.00 0.00 0.00 62 1017.9
20260901154530 32 342 1.6 6.4 0.00 0.00 0.00 63 1018.0
20260901154008 32 107 0.0 4.8 0.00 0.00 0.00 65 1018.1
20260901153512 32 352 1.6 6.4 0.00 0.00 0.00 64 1018.1
20260901153036 32 352 0.0 6.4 0.00 0.00 0.00 66 1018.1
20260901152507 31 185 0.0 6.4 0.00 0.00 0.00 66 1018.1
20260901152013 31 17 1.6 6.4 0.00 0.00 0.00 70 1018.2
20260901151531 31 346 3.2 6.4 0.00 0.00 0.00 70 1018.1
20260901151010 31 350 0.0 6.4 0.00 0.00 0.00 72 1018.1
20260901150511 31 360 1.6 8.0 0.00 0.00 0.00 71 1018.2
20260901150032 31 36 0.0 8.0 0.00 0.00 0.00 72 1018.3
20260901145508 30 342 0.0 8.0 0.00 0.00 0.00 72 1018.4
20260901145014 30 360 0.0 6.4 0.00 0.00 0.00 73 1018.5
20260901144530 30 342 3.2 6.4 0.00 0.00 0.00 73 1018.5
20260901144010 30 332 1.6 8.0 0.00 0.00 0.00 77 1018.5
20260901143516 29 5 1.6 8.0 0.00 0.00 0.00 74 1018.5
20260901143034 29 5 1.6 4.8 0.00 0.00 0.00 75 1018.6
20260901142510 28 328 0.0 4.8 0.00 0.00 0.00 76 1018.6
20260901142015 28 348 1.6 6.4 0.00 0.00 0.00 76 1018.5
20260901141535 28 355 1.6 6.4 0.00 0.00 0.00 77 1018.5
20260901141009 28 355 0.0 9.7 0.00 0.00 0.00 78 1018.5
20260901140514 28 28 1.6 9.7 0.00 0.00 0.00 78 1018.5
20260901140034 27 346 0.0 4.8 0.00 0.00 0.00 82 1018.5
20260901135514 27 16 1.6 4.8 0.00 0.00 0.00 82 1018.5
20260901135014 27 34 0.0 4.8 0.00 0.00 0.00 82 1018.5
20260901134550 27 360 0.0 4.8 0.00 0.00 0.00 83 1018.5
20260901134013 26 26 0.0 4.8 0.00 0.00 0.00 84 1018.5
20260901133517 26 345 0.0 0.0 0.00 0.00 0.00 84 1018.5
20260901133032 26 350 0.0 0.0 0.00 0.00 0.00 85 1018.5
20260901132511 26 48 0.0 0.0 0.00 0.00 0.00 87 1018.5
20260901132016 25 40 0.0 0.0 0.00 0.00 0.00 88 1018.4
20260901131514 25 5 0.0 1.6 0.00 0.00 0.00 89 1018.5
20260901131017 25 38 0.0 4.8 0.00 0.00 0.00 90 1018.6
20260901130523 25 346 0.0 4.8 0.00 0.00 0.00 91 1018.7
20260901130012 24 347 0.0 3.2 0.00 0.00 0.00 93 1018.7
20260901125513 24 5 0.0 1.6 0.00 0.00 0.00 93 1018.7
20260901125018 23 5 0.0 1.6 0.00 0.00 0.00 94 1018.7
20260901124514 23 5 0.0 0.0 0.00 0.00 0.00 95 1018.6
20260901124013 23 5 0.0 0.0 0.00 0.00 0.00 95 1018.8
20260901123506 23 5 0.0 0.0 0.00 0.00 0.00 95 1018.6
20260901123016 23 5 0.0 0.0 0.00 0.00 0.00 95 1018.6
20260901122514 22 5 0.0 0.0 0.00 0.00 0.00 95 1018.6
20260901122007 22 5 0.0 0.0 0.00 0.00 0.00 95 1018.7
20260901121518 22 5 0.0 0.0 0.00 0.00 0.00 95 1018.7
20260901121014 22 5 0.0 0.0 0.00 0.00 0.00 95 1018.7
20260901120507 22 5 0.0 0.0 0.00 0.00 0.00 95 1018.5
20260901120019 22 5 0.0 0.0 0.00 0.00 0.00 95 1018.6
20260901115515 22 5 0.0 0.0 0.00 0.00 0.00 95 1018.7
20260901115005 22 5 0.0 0.0 0.00 0.00 0.00 95 1018.7
20260901114521 22 5 0.0 0.0 0.00 0.00 0.00 95 1018.6
20260901114013 22 5 0.0 0.0 0.00 0.00 0.00 95 1018.5
20260901113506 22 5 0.0 0.0 0.00 0.00 0.00 95 1018.5
20260901113020 22 5 0.0 0.0 0.00 0.00 0.00 95 1018.3
20260901112516 22 5 0.0 0.0 0.00 0.00 0.00 95 1018.2
20260901112011 22 5 0.0 0.0 0.00 0.00 0.00 95 1018.2
20260901111520 22 5 0.0 0.0 0.00 0.00 0.00 95 1018.2
20260901111013 21 5 0.0 0.0 0.00 0.00 0.00 95 1018.2
20260901110509 21 5 0.0 0.0 0.00 0.00 0.00 95 1018.1
20260901110023 21 5 0.0 0.0 0.00 0.00 0.00 95 1018.1
20260901105518 21 5 0.0 0.0 0.00 0.00 0.00 95 1018.1
20260901105009 21 5 0.0 0.0 0.00 0.00 0.00 95 1018.1
20260901104523 21 5 0.0 0.0 0.00 0.00 0.00 95 1018.1
20260901104018 21 5 0.0 0.0 0.00 0.00 0.00 95 1018.1
20260901103508 21 5 0.0 0.0 0.00 0.00 0.00 95 1018.0
20260901103023 21 5 0.0 0.0 0.00 0.00 0.00 94 1018.1
20260901102517 22 5 0.0 0.0 0.00 0.00 0.00 94 1018.1
20260901102010 22 5 0.0 0.0 0.00 0.00 0.00 94 1018.0
20260901101544 22 5 0.0 0.0 0.00 0.00 0.00 94 1018.1
20260901101018 22 5 0.0 0.0 0.00 0.00 0.00 95 1018.1
20260901100516 22 5 0.0 0.0 0.00 0.00 0.00 95 1018.2
20260901100025 22 5 0.0 0.0 0.00 0.00 0.00 94 1018.2
20260901095517 22 5 0.0 0.0 0.00 0.00 0.00 94 1018.2
20260901095012 22 5 0.0 0.0 0.00 0.00 0.00 94 1018.1
20260901094502 22 5 0.0 0.0 0.00 0.00 0.00 94 1018.1
20260901094001 22 5 0.0 0.0 0.00 0.00 0.00 94 1018.1
20260901093506 22 5 0.0 0.0 0.00 0.00 0.00 94 1018.0
20260901093010 22 5 0.0 0.0 0.00 0.00 0.00 94 1018.1
20260901092504 22 5 0.0 0.0 0.00 0.00 0.00 94 1018.2
20260901092002 22 5 0.0 0.0 0.00 0.00 0.00 94 1018.2
20260901091503 22 5 0.0 0.0 0.00 0.00 0.00 94 1018.1
20260901091002 22 5 0.0 0.0 0.00 0.00 0.00 94 1018.1
20260901090502 22 5 0.0 0.0 0.00 0.00 0.00 94 1018.0
20260901090006 22 5 0.0 0.0 0.00 0.00 0.00 94 1018.0
20260901085502 22 5 0.0 0.0 0.00 0.00 0.00 94 1018.0
20260901085001 22 5 0.0 0.0 0.00 0.00 0.00 94 1017.9
20260901084505 22 5 0.0 0.0 0.00 0.00 0.00 94 1018.0
20260901084002 22 5 0.0 0.0 0.00 0.00 0.00 93 1017.8
20260901083502 22 5 0.0 0.0 0.00 0.00 0.00 93 1017.9
20260901083003 22 5 0.0 0.0 0.00 0.00 0.00 93 1018.1
20260901082502 22 5 0.0 0.0 0.00 0.00 0.00 93 1018.1
20260901082001 22 5 0.0 0.0 0.00 0.00 0.00 93 1018.1
20260901081502 22 5 0.0 0.0 0.00 0.00 0.00 93 1018.0
20260901081002 22 5 0.0 0.0 0.00 0.00 0.00 93 1018.1
20260901080502 22 5 0.0 0.0 0.00 0.00 0.00 93 1018.2
20260901080003 22 5 0.0 0.0 0.00 0.00 0.00 93 1018.1
20260901075503 22 5 0.0 0.0 0.00 0.00 0.00 93 1018.1
20260901075004 22 5 0.0 0.0 0.00 0.00 0.00 92 1018.1
20260901074503 23 5 0.0 0.0 0.00 0.00 0.00 92 1018.1
20260901074002 23 5 0.0 0.0 0.00 0.00 0.00 92 1018.0
20260901073502 23 5 0.0 0.0 0.00 0.00 0.00 92 1018.0
20260901073003 23 5 0.0 0.0 0.00 0.00 0.00 92 1018.0
20260901072503 23 5 0.0 0.0 0.00 0.00 0.00 91 1018.1
20260901072003 23 5 0.0 0.0 0.00 0.00 0.00 91 1018.1
20260901071502 23 5 0.0 0.0 0.00 0.00 0.00 91 1018.2
20260901071002 23 5 0.0 0.0 0.00 0.00 0.00 91 1018.3
20260901070502 23 5 0.0 0.0 0.00 0.00 0.00 90 1018.3
20260901070004 23 5 0.0 0.0 0.00 0.00 0.00 90 1018.4
20260901065503 23 5 0.0 0.0 0.00 0.00 0.00 90 1018.4
20260901065004 23 5 0.0 3.2 0.00 0.00 0.00 90 1018.4
20260901064503 23 5 0.0 3.2 0.00 0.00 0.00 90 1018.4
20260901064001 23 5 0.0 3.2 0.00 0.00 0.00 90 1018.3
20260901063502 23 28 0.0 4.8 0.00 0.00 0.00 90 1018.4
20260901063009 23 134 0.0 4.8 0.00 0.00 0.00 89 1018.5
20260901062502 23 355 0.0 0.0 0.00 0.00 0.00 90 1018.5
20260901062003 23 355 0.0 0.0 0.00 0.00 0.00 90 1018.5
20260901061505 23 355 0.0 0.0 0.00 0.00 0.00 90 1018.5
20260901061003 23 355 0.0 0.0 0.00 0.00 0.00 90 1018.6
20260901060503 23 355 0.0 1.6 0.00 0.00 0.00 90 1018.7
20260901060006 23 355 0.0 1.6 0.00 0.00 0.00 90 1018.7
20260901055505 23 355 0.0 0.0 0.00 0.00 0.00 90 1018.7
20260901055010 23 355 0.0 0.0 0.00 0.00 0.00 90 1018.8
20260901054504 23 355 0.0 0.0 0.00 0.00 0.00 90 1018.8
20260901054003 23 355 0.0 0.0 0.00 0.00 0.00 90 1018.8
20260901053503 24 355 0.0 0.0 0.00 0.00 0.00 90 1018.8
20260901053005 24 355 0.0 0.0 0.00 0.00 0.00 90 1018.9
20260901052502 24 355 0.0 0.0 0.00 0.00 0.00 90 1018.9
20260901052007 24 355 0.0 0.0 0.00 0.00 0.00 90 1019.0
20260901051503 24 355 0.0 3.2 0.00 0.00 0.00 90 1018.9
20260901051002 24 355 0.0 3.2 0.00 0.00 0.00 90 1019.0
20260901050503 24 355 0.0 3.2 0.00 0.00 0.00 90 1019.1
20260901050008 24 69 0.0 1.6 0.00 0.00 0.00 89 1019.1
20260901045503 24 69 0.0 0.0 0.00 0.00 0.00 89 1019.1
20260901045010 24 69 0.0 0.0 0.00 0.00 0.00 89 1019.2
20260901044506 25 69 0.0 0.0 0.00 0.00 0.00 88 1019.2
20260901044002 25 69 0.0 0.0 0.00 0.00 0.00 88 1019.2
20260901043506 25 69 0.0 0.0 0.00 0.00 0.00 88 1019.2
20260901043014 25 69 0.0 1.6 0.00 0.00 0.00 87 1019.2
20260901042504 25 69 0.0 1.6 0.00 0.00 0.00 87 1019.2
20260901042007 25 88 0.0 1.6 0.00 0.00 0.00 86 1019.1
20260901041508 25 88 0.0 1.6 0.00 0.00 0.00 86 1019.1
20260901041003 25 123 0.0 0.0 0.00 0.00 0.00 86 1019.0
20260901040506 25 123 0.0 0.0 0.00 0.00 0.00 85 1019.0
20260901040007 25 123 0.0 1.6 0.00 0.00 0.00 85 1019.0
20260901035505 25 123 0.0 3.2 0.00 0.00 0.00 85 1019.0
20260901035005 25 114 0.0 3.2 0.00 0.00 0.00 84 1019.1
20260901034509 26 202 1.6 6.4 0.00 0.00 0.00 84 1019.1
20260901034009 26 179 0.0 6.4 0.00 0.00 0.00 84 1019.1
20260901033506 26 126 0.0 9.7 0.00 0.00 0.00 84 1019.0
20260901033010 26 134 0.0 9.7 0.00 0.00 0.00 83 1018.9
20260901032504 26 153 1.6 6.4 0.00 0.00 0.00 83 1019.0
20260901032010 26 119 0.0 8.0 0.00 0.00 0.00 82 1018.9
20260901031507 26 138 0.0 11.3 0.00 0.00 0.00 82 1018.8
20260901031003 26 116 3.2 11.3 0.00 0.00 0.00 82 1018.9
20260901030507 26 101 0.0 8.0 0.00 0.00 0.00 82 1018.9
20260901030003 26 123 0.0 8.0 0.00 0.00 0.00 82 1019.0
20260901025506 26 165 0.0 4.8 0.00 0.00 0.00 83 1018.9
20260901025009 26 168 0.0 6.4 0.00 0.00 0.00 83 1018.9
20260901024506 26 150 0.0 6.4 0.00 0.00 0.00 83 1018.9
20260901024008 26 209 0.0 1.6 0.00 0.00 0.00 83 1018.9
20260901023505 26 108 0.0 1.6 0.00 0.00 0.00 83 1018.9
20260901023003 26 108 0.0 1.6 0.00 0.00 0.00 83 1018.9
20260901022506 26 110 0.0 0.0 0.00 0.00 0.00 82 1019.0
20260901022017 26 110 0.0 0.0 0.00 0.00 0.00 82 1019.0
20260901021505 26 110 0.0 0.0 0.00 0.00 0.00 82 1019.0
20260901021008 26 110 0.0 0.0 0.00 0.00 0.00 81 1019.1
20260901020513 26 110 0.0 1.6 0.00 0.00 0.00 81 1019.1
20260901020011 26 110 0.0 1.6 0.00 0.00 0.00 81 1019.1
20260901015507 26 110 0.0 0.0 0.00 0.00 0.00 80 1019.1
20260901015008 26 110 0.0 0.0 0.00 0.00 0.00 80 1019.1
20260901014504 26 110 0.0 0.0 0.00 0.00 0.00 80 1018.9
20260901014010 26 110 0.0 0.0 0.00 0.00 0.00 80 1018.9
20260901013510 26 111 0.0 0.0 0.00 0.00 0.00 79 1018.9
20260901013004 26 112 0.0 3.2 0.00 0.00 0.00 79 1018.9
20260901012509 26 112 0.0 3.2 0.00 0.00 0.00 79 1018.8
20260901012009 26 112 0.0 1.6 0.00 0.00 0.00 79 1018.8
20260901011504 26 342 0.0 1.6 0.00 0.00 0.00 79 1018.8
20260901011011 26 25 0.0 1.6 0.00 0.00 0.00 79 1018.7
20260901010513 26 25 0.0 0.0 0.00 0.00 0.00 80 1018.7
20260901010005 26 25 0.0 0.0 0.00 0.00 0.00 81 1018.7
20260901005514 26 25 0.0 0.0 0.00 0.00 0.00 80 1018.6
20260901005013 26 25 0.0 0.0 0.00 0.00 0.00 81 1018.6
20260901004508 26 25 0.0 0.0 0.00 0.00 0.00 80 1018.7
20260901004010 27 25 0.0 0.0 0.00 0.00 0.00 80 1018.8
20260901003516 27 25 0.0 0.0 0.00 0.00 0.00 80 1018.8
20260901003008 27 25 0.0 0.0 0.00 0.00 0.00 79 1018.9
20260901002510 27 25 0.0 0.0 0.00 0.00 0.00 79 1018.8
20260901002012 27 25 0.0 0.0 0.00 0.00 0.00 79 1018.7
20260901001510 27 25 0.0 0.0 0.00 0.00 0.00 78 1018.7
20260901001011 27 25 0.0 0.0 0.00 0.00 0.00 78 1018.6
20260901000511 27 25 0.0 0.0 0.00 0.00 0.00 78 1018.5
20260901000010 27 25 0.0 1.6 0.00 0.00 0.00 77 1018.4
20260831235511 27 25 0.0 1.6 0.00 0.00 0.00 77 1018.3
20260831235011 27 25 0.0 0.0 0.00 0.00 0.00 76 1018.3
20260831234518 28 25 0.0 0.0 0.00 0.00 0.00 76 1018.3
20260831234010 28 25 0.0 0.0 0.00 0.00 0.00 74 1018.3
20260831233509 28 25 0.0 0.0 0.00 0.00 0.00 73 1018.3
20260831233019 28 25 0.0 0.0 0.00 0.00 0.00 72 1018.4
20260831232510 28 25 0.0 0.0 0.00 0.00 0.00 72 1018.4
20260831232015 29 25 0.0 0.0 0.00 0.00 0.00 72 1018.4
20260831231513 29 25 0.0 0.0 0.00 0.00 0.00 72 1018.3
20260831231012 29 25 0.0 0.0 0.00 0.00 0.00 69 1018.3
20260831230512 30 25 0.0 0.0 0.00 0.00 0.00 68 1018.2
20260831230015 30 25 0.0 0.0 0.00 0.00 0.00 67 1018.2
20260831225511 30 25 0.0 0.0 0.00 0.00 0.00 67 1018.2
20260831225010 30 25 0.0 0.0 0.00 0.00 0.00 67 1018.2
20260831224516 30 25 0.0 0.0 0.00 0.00 0.00 67 1018.2
20260831224012 30 25 0.0 0.0 0.00 0.00 0.00 67 1018.2
20260831223512 31 25 0.0 0.0 0.00 0.00 0.00 65 1018.2
20260831223016 31 25 0.0 3.2 0.00 0.00 0.00 65 1018.2
20260831222511 31 25 0.0 3.2 0.00 0.00 0.00 65 1018.2
20260831222013 31 25 0.0 3.2 0.00 0.00 0.00 64 1018.3
20260831221517 31 324 0.0 4.8 0.00 0.00 0.00 62 1018.3
20260831221010 31 309 0.0 4.8 0.00 0.00 0.00 61 1018.2
20260831220512 31 329 0.0 4.8 0.00 0.00 0.00 62 1018.2
20260831220024 31 333 0.0 4.8 0.00 0.00 0.00 60 1018.1
20260831215515 32 5 0.0 3.2 0.00 0.00 0.00 60 1018.2
20260831215012 32 355 0.0 4.8 0.00 0.00 0.00 59 1018.1
20260831214523 32 311 0.0 4.8 0.00 0.00 0.00 58 1018.1
20260831214015 32 355 0.0 4.8 0.00 0.00 0.00 58 1018.0
20260831213514 32 39 0.0 4.8 0.00 0.00 0.00 59 1018.1
20260831213032 32 313 1.6 4.8 0.00 0.00 0.00 56 1018.1
20260831212517 32 341 0.0 3.2 0.00 0.00 0.00 57 1018.2
20260831212018 32 327 0.0 6.4 0.00 0.00 0.00 58 1018.2
20260831211522 32 327 0.0 8.0 0.00 0.00 0.00 57 1018.2
20260831211014 32 344 3.2 8.0 0.00 0.00 0.00 56 1018.2
20260831210508 32 343 4.8 8.0 0.00 0.00 0.00 56 1018.2
20260831210025 32 346 0.0 8.0 0.00 0.00 0.00 56 1018.1
20260831205514 32 47 0.0 6.4 0.00 0.00 0.00 57 1018.1
20260831205010 32 355 0.0 6.4 0.00 0.00 0.00 55 1018.1
20260831204523 32 348 0.0 6.4 0.00 0.00 0.00 57 1018.1
20260831204016 32 14 0.0 6.4 0.00 0.00 0.00 57 1018.1
20260831203509 32 335 0.0 4.8 0.00 0.00 0.00 57 1018.2
20260831203025 32 335 0.0 6.4 0.00 0.00 0.00 55 1018.2
20260831202513 32 306 0.0 12.9 0.00 0.00 0.00 55 1018.2
20260831202012 33 318 1.6 12.9 0.00 0.00 0.00 54 1018.3
20260831201537 33 355 1.6 4.8 0.00 0.00 0.00 53 1018.3